Location: Ebenezer
(18.2167°N, 63.0667°W)
Time: 01:12:21
(UTC+00:00)

USA 116 - Pass Details

Date: 26 January 2020
Orbit: 405 x 834 km, 97.9° (Epoch: 18 November)

Event Time Altitude Azimuth Distance (km) Brightness Sun altitude
Rises 22:34:37 0° 7° (N) 2,323 6.7 -8.0°
Reaches altitude 10° 22:36:34 10° 4° (N) 1,474 5.7 -8.4°
Maximum altitude 22:39:38 62° 282° (WNW) 478 3.7 -9.1°
Drops below altitude 10° 22:42:54 10° 201° (SSW) 1,565 6.6 -9.8°
Sets 22:45:01 0° 197° (SSW) 2,486 7.6 -10.3°
